SCP
0 0 0 0 0 0 0 0 0 0 0 0 0 0 0 0 -0 -0 -0 -0 -0 -0 0 0 0 0 0 -0 0 0 0 0 2 2 5 6 5 4 3 0 0 0 0 0
0 0 0 0 0 0 0 0 0 0 0 0 0 0 -0 -0 -0 -0 -0 0 0 0 0 -0 0 0 0 0 0 0 0 0 1 2 4 3 6 3 1 0 0 0 0 0
0 0 0 0 0 0 0 0 0 0 0 0 0 -0 0 0 0 0 0 0 0 0 0 0 0 0 0 0 0 0 0 0 0 1 3 3 4 1 0 0 0 0 0 0
0 0 0 0 0 0 0 0 0 0 0 0 0 -0 -0 -0 -0 0 -0 -0 -0 0 0 0 0 0 0 0 0 0 0 0 0 1 2 1 0 0 0 0 0 0 0 0
0 0 0 0 0 0 0 -0 0 0 0 0 0 -0 -0 0 0 -0 -0 -0 -0 -0 0 0 0 0 0 0 0 0 -0 -0 1 1 1 0 0 0 0 0 0 0 0 0
0 0 0 0 0 0 0 0 0 0 0 0 0 0 -0 -0 -0 -0 -0 -0 -0 -0 0 0 0 0 0 0 0 -0 -0 -0 1 1 0 0 0 0 0 0 0 0 0 0
0 0 0 0 0 0 0 0 0 0 0 0 0 0 -0 -0 -0 -0 -0 -0 -0 -0 -0 -0 -0 0 -0 0 -0 -0 0 0 0 0 0 0 0 0 0 0 0 0 0 0
0 0 0 0 0 0 0 0 0 0 0 0 0 0 -0 -0 -0 -0 0 0 0 0 0 -0 0 0 0 -0 0 0 0 0 0 0 0 0 0 0 0 0 0 0 0 0
0 0 0 0 0 0 0 0 0 -0 0 0 -0 -0 -0 -0 -0 -0 -0 -0 0 -0 0 -0 0 0 0 0 0 0 0 0 0 0 0 0 0 0 0 0 0 0 0 0
0 0 0 0 0 0 0 -0 -0 -0 -0 0 0 -0 0 0 0 -0 -0 -0 -0 -0 -0 0 0 0 0 0 0 0 0 0 0 0 0 0 0 0 0 0 0 0 0 0
0 0 0 0 0 0 0 -0 -0 -0 0 0 0 -0 0 0 -0 -0 -0 0 0 0 0 0 0 0 -0 0 0 0 0 0 0 0 -0 0 0 0 0 0 0 0 0 0
0 0 0 0 0 0 0 0 -0 -0 -0 -0 0 -0 0 -0 -0 0 0 -0 0 0 0 0 0 0 0 0 0 0 0 0 0 -0 0 0 0 0 0 0 0 0 0 0
0 0 0 0 0 0 -0 0 -0 -0 -0 -0 -0 -0 -0 -0 -0 0 0 0 0 0 0 0 0 -0 0 0 0 0 0 0 0 0 0 0 0 0 0 0 0 0 0 0
0 0 0 0 0 0 -0 -0 0 -0 0 0 0 0 -0 -0 0 0 0 0 0 0 0 0 0 0 0 0 0 0 0 0 0 0 0 0 0 0 0 0 0 0 0 0
0 0 0 0 0 -0 0 -0 -0 -0 0 0 0 0 0 -0 0 0 0 0 0 0 0 0 0 0 0 0 0 0 0 0 0 0 0 0 0 0 0 0 0 0 0 0
0 0 0 0 0 -0 0 0 0 0 0 0 0 0 0 -0 0 0 0 0 0 0 0 0 0 0 0 0 0 0 0 0 0 0 0 0 0 0 0 0 0 0 0 -0
0 -0 0 0 0 0 0 0 0 0 0 0 0 0 0 0 0 0 0 0 0 0 0 0 0 0 0 0 0 0 0 0 0 0 0 0 0 0 0 0 0 0 -0 -0
0 -0 -0 0 0 0 0 0 0 0 0 0 0 0 0 0 0 0 0 0 0 0 0 0 0 0 0 0 0 0 0 0 0 0 0 0 0 0 0 0 0 0 0 -0
-0 -0 -0 -0 -0 -0 0 0 0 0 0 0 0 0 0 0 0 0 0 0 0 0 0 0 0 0 0 0 0 0 0 0 0 0 0 0 0 0 0 0 0 -0 0 0
-0 -0 -0 -0 -0 -0 0 0 0 0 0 0 0 0 0 0 0 0 0 0 0 0 0 0 0 0 0 0 0 0 0 0 0 0 0 0 0 0 0 0 0 0 0 0
-0 -0 0 0 -0 0 0 0 0 0 0 0 0 0 0 0 0 0 0 0 0 0 0 0 0 0 0 0 0 0 0 0 0 0 0 0 -0 0 0 0 0 0 0 0
-0 0 -0 -0 -0 0 0 0 0 0 0 0 0 0 0 0 0 0 0 0 0 0 0 0 0 0 0 0 0 0 0 0 0 0 0 -0 -0 0 0 0 0 0 -0 -0
-0 -0 0 -0 -0 -0 0 0 0 0 0 0 0 0 0 0 0 0 0 0 0 0 0 0 0 0 0 0 0 0 0 0 0 -0 -0 0 0 0 0 0 -0 -0 -0 -0
-0 0 0 -0 -0 -0 0 0 0 0 0 0 -0 0 0 0 0 0 0 0 0 0 0 0 0 0 0 0 0 0 0 0 -0 -0 -0 0 0 0 -0 -0 -0 -0 -0 -0
0 0 0 -0 0 -0 -0 -0 -0 -0 -0 -0 0 0 0 0 0 0 0 0 0 0 0 0 0 0 0 0 0 0 -0 -0 -0 -0 0 0 -0 -0 -0 -0 -0 -0 -0 -0
0 -0 -0 0 0 0 0 0 -0 -0 -0 -0 0 0 0 0 0 0 0 0 0 0 0 0 0 0 0 0 0 -0 -0 -0 0 0 -0 -0 -0 -0 -0 -0 -0 -0 0 0
0 0 0 0 0 0 0 0 -0 0 0 0 0 0 0 0 0 0 0 0 0 0 0 0 0 0 0 -0 -0 -0 -0 -0 -0 -0 -0 0 -0 -0 -0 -0 -0 -0 0 0
Wind_Speed_500mb
31 42 42 47 49 44 36 38 26 41 36 44 40 23 37 58 67 71 70 71 75 74 86 86 80 74 68 64 59 60 52 45 57 76 81 89 80 75 78 78 78 89 85 92
28 36 37 43 38 30 24 11 21 31 52 31 43 47 58 68 70 74 80 80 79 81 82 73 66 70 69 67 59 57 61 49 63 70 84 83 85 73 80 89 87 83 90 89
14 9 28 13 5 2 8 16 25 36 47 23 40 48 58 73 76 79 83 86 85 80 73 71 64 58 65 59 57 61 59 60 65 68 86 86 88 83 94 90 90 83 90 89
10 14 7 3 8 3 22 32 34 30 24 40 57 72 86 92 81 80 75 71 68 71 78 67 62 70 66 57 60 63 66 66 67 65 77 85 93 97 99 103 101 98 97 88
6 5 19 2 3 11 21 56 4 18 44 52 69 78 70 32 43 55 68 77 79 80 79 75 69 64 57 51 56 65 72 68 53 64 81 86 99 115 100 99 105 116 114 101
5 8 9 4 5 39 15 14 10 42 40 46 61 24 36 90 106 92 64 61 62 58 58 62 58 58 68 73 71 88 79 64 65 81 82 95 108 112 117 103 112 110 102 89
12 10 14 5 24 23 7 12 53 56 63 64 31 33 84 108 92 58 48 44 41 41 45 51 62 53 49 77 88 65 61 61 87 93 109 114 115 113 127 121 125 111 101 91
5 5 12 20 9 5 14 39 58 67 71 69 77 87 83 77 64 54 48 42 40 41 29 17 8 23 31 41 42 54 89 103 114 119 112 109 111 110 143 139 126 113 101 98
11 10 8 35 31 42 42 48 60 64 79 76 76 76 72 63 55 50 41 33 30 17 21 30 29 37 82 76 103 125 128 127 124 118 114 108 104 132 136 139 131 120 117 106
2 9 16 28 38 42 36 45 61 67 67 63 65 64 60 55 50 47 36 32 27 31 43 45 51 67 79 84 113 128 134 129 126 125 119 121 130 127 136 133 126 120 114 108
10 19 28 19 22 42 44 47 55 59 54 54 55 57 46 47 45 37 30 34 44 52 64 69 68 75 82 89 121 131 130 134 129 137 137 135 123 117 120 112 115 116 108 104
9 9 11 25 36 42 44 47 48 52 54 55 51 49 43 43 45 38 35 38 47 56 73 78 81 84 87 96 120 140 138 135 142 138 127 123 123 114 106 107 97 99 97 92
12 14 29 43 36 39 40 38 41 36 40 46 44 41 37 44 43 39 36 46 54 59 58 68 86 91 94 108 130 138 147 134 132 132 122 118 116 116 111 94 91 87 84 82
26 23 26 16 16 33 29 31 29 27 29 33 35 31 34 35 43 43 44 47 59 62 65 61 74 85 91 99 111 114 119 120 123 124 120 116 115 115 114 110 103 90 75 74
15 18 34 25 21 29 23 28 31 33 34 33 34 33 36 37 41 43 47 47 59 65 68 68 68 73 79 86 99 111 117 119 119 118 119 121 120 115 109 106 104 97 84 69
5 10 13 14 13 19 19 24 28 32 30 29 32 36 32 35 41 44 42 58 67 71 69 70 65 66 81 89 100 108 111 112 114 115 112 109 108 109 107 103 97 87 80 73
4 11 18 15 5 10 13 19 21 23 26 30 27 34 31 40 45 57 54 49 67 75 76 74 77 64 78 92 98 105 105 106 106 108 108 106 105 103 100 95 89 80 72 63
7 10 10 13 8 5 12 18 18 22 26 27 30 36 46 51 55 58 64 67 67 71 73 78 81 83 84 88 96 99 99 97 98 100 99 98 97 93 90 86 80 76 68 59
9 15 11 17 13 10 14 19 23 22 23 27 31 44 44 48 60 68 72 80 82 87 77 74 79 76 78 86 91 85 82 86 90 91 91 90 88 84 81 77 72 67 64 61
18 15 16 19 14 18 18 22 26 27 28 37 36 43 50 56 65 72 74 72 67 67 60 61 62 65 62 58 66 76 84 85 91 91 87 84 81 77 72 68 66 63 61 57
20 15 20 26 21 21 21 26 31 32 35 43 51 60 63 61 63 58 63 62 54 50 52 58 57 58 58 62 70 77 83 87 86 84 80 77 73 71 68 64 60 57 55 52
19 15 21 28 27 30 25 30 40 35 37 43 50 55 66 66 62 54 55 59 55 54 58 55 55 58 60 61 65 71 73 74 75 73 72 68 65 65 61 57 55 53 50 47
17 16 23 31 34 33 29 36 33 36 40 45 52 57 65 61 55 61 63 54 57 62 67 70 68 64 60 63 63 63 61 61 62 63 62 59 58 57 54 52 52 50 47 42
18 20 24 26 28 33 37 31 28 32 46 54 62 66 70 57 55 53 58 57 51 47 55 59 58 54 49 51 51 53 52 56 60 58 55 51 48 47 47 47 48 46 41 36
22 25 24 24 25 31 32 35 41 51 59 62 55 51 44 39 49 51 52 55 58 57 58 56 54 47 47 46 47 49 53 56 53 51 47 44 43 44 45 43 43 42 37 32
24 27 25 22 21 26 31 31 41 45 48 54 45 37 35 38 41 47 52 50 50 46 45 44 41 42 45 47 50 51 50 48 44 42 41 39 39 41 41 40 37 35 31 27
29 27 29 29 26 30 34 37 42 46 40 37 34 33 35 32 34 38 44 45 43 43 40 38 39 42 41 40 41 39 37 36 35 34 34 34 34 36 36 34 31 31 27 27
Wind_Direction_500mb
250 261 271 273 277 281 273 271 274 298 297 297 303 321 306 303 299 294 287 285 280 279 283 287 286 285 284 279 268 260 263 263 232 224 227 221 211 206 209 201 209 199 201 194
271 264 265 273 275 277 280 290 281 287 288 305 317 311 305 298 290 287 287 284 280 279 279 282 283 282 280 290 271 255 258 253 230 222 224 213 201 193 195 190 195 197 192 191
277 334 307 278 219 144 290 285 296 291 300 331 314 311 302 298 293 286 283 281 280 282 286 285 275 271 277 275 263 258 257 244 234 220 215 201 188 180 181 185 187 191 187 181
291 338 318 194 97 285 283 283 283 290 320 317 308 297 294 291 283 279 279 281 288 286 284 281 277 275 277 264 253 243 243 252 233 214 197 191 182 174 178 179 180 175 164 157
291 250 280 170 40 314 320 310 75 339 321 313 313 313 303 305 303 295 295 293 290 287 281 284 282 278 265 261 250 238 235 244 228 197 191 183 178 170 178 178 173 160 150 146
294 275 275 147 296 324 310 280 15 334 317 314 318 311 306 319 317 317 310 306 303 298 292 289 286 285 277 257 259 237 227 241 200 192 181 184 175 174 169 167 153 148 142 142
259 261 277 38 344 326 36 291 318 319 311 309 307 285 292 309 323 337 337 328 316 308 301 295 286 277 268 246 228 222 222 203 186 177 172 170 167 169 159 150 145 143 141 141
251 267 289 6 5 353 279 306 305 307 308 307 307 309 315 321 332 347 344 334 325 318 329 340 81 135 122 132 181 175 161 159 157 157 160 161 161 156 149 147 140 140 136 131
209 238 251 333 303 298 303 304 308 308 315 313 310 316 326 339 353 359 3 350 339 357 65 82 113 89 119 115 134 145 147 147 147 147 150 157 159 149 141 137 135 135 134 137
359 251 251 296 300 302 300 318 318 318 317 323 320 333 347 1 2 10 7 23 41 75 81 88 95 104 111 114 127 129 135 137 139 138 133 139 143 140 133 139 138 136 137 138
251 279 291 282 288 323 327 330 324 327 335 337 338 350 7 9 15 24 34 51 65 73 87 88 95 105 112 112 121 121 120 126 132 138 135 130 135 138 135 130 138 143 142 139
256 254 279 285 316 322 331 330 329 331 339 342 354 2 6 23 35 41 55 69 76 85 99 94 96 105 110 114 115 121 118 121 126 132 139 139 136 123 126 130 136 139 136 131
241 291 299 302 313 333 330 335 332 334 342 341 354 14 11 36 46 54 63 74 81 90 100 100 100 103 109 114 121 121 122 126 131 138 134 128 122 121 126 131 126 120 123 125
254 290 290 286 327 338 341 341 349 359 356 357 14 17 39 46 56 67 66 75 87 96 97 102 97 94 105 115 121 121 124 127 125 126 125 123 123 125 127 125 122 121 121 122
276 282 287 294 340 347 352 353 7 8 7 8 29 30 40 52 57 76 85 88 90 91 93 97 99 105 114 120 123 122 123 123 124 125 127 129 130 130 128 127 125 125 125 122
254 322 342 277 331 359 4 12 14 10 8 18 37 44 38 48 63 65 77 89 91 91 98 105 106 120 123 128 125 124 124 125 127 129 130 129 130 129 129 128 127 128 129 128
308 349 342 318 10 14 14 22 26 17 26 37 32 63 58 67 72 80 86 84 90 99 108 110 113 122 121 123 125 126 129 131 131 130 130 131 132 132 131 130 130 128 124 124
357 349 339 347 44 38 26 38 46 30 51 50 58 66 74 77 80 83 90 97 97 96 100 107 113 118 122 128 129 130 130 131 131 129 131 132 131 130 129 126 125 123 123 126
70 70 42 54 62 59 54 58 62 59 63 71 75 81 86 89 95 95 100 97 92 95 99 104 109 113 121 126 126 127 131 132 131 130 129 128 126 126 126 126 127 127 131 133
125 80 63 73 72 81 69 75 83 79 86 91 95 96 96 97 102 100 97 91 102 105 112 110 114 116 120 129 130 130 132 132 131 129 129 128 129 130 130 129 130 131 131 128
122 85 74 70 82 85 79 89 92 88 104 104 104 99 99 106 104 95 90 88 107 117 113 109 110 109 113 121 125 129 131 131 130 130 130 129 130 130 131 130 128 127 125 124
141 106 82 79 88 90 83 99 97 90 104 107 114 113 112 104 93 81 88 95 107 106 109 115 117 114 115 120 123 127 128 128 129 129 128 128 128 128 127 128 129 128 128 125
156 139 107 91 87 90 91 102 101 104 110 116 120 118 113 105 104 102 97 95 100 102 106 107 107 109 115 119 123 125 128 128 127 128 128 127 125 125 127 128 129 129 129 129
149 153 131 113 95 90 92 104 110 106 123 121 117 110 114 106 102 100 102 107 108 109 106 105 105 107 114 120 126 128 127 130 130 129 124 120 119 123 127 131 133 132 129 127
142 147 141 129 114 105 100 102 112 122 122 117 114 107 108 112 106 105 106 107 105 103 103 101 101 108 107 115 126 126 126 128 127 125 124 124 126 130 133 135 133 134 129 124
136 131 126 126 113 111 106 105 118 134 128 125 118 108 98 99 106 103 100 101 99 100 100 105 108 103 102 107 116 116 121 123 125 125 126 128 132 134 134 137 136 134 129 129
132 126 125 127 124 118 118 120 122 127 125 120 116 115 114 105 102 105 103 103 105 103 104 104 108 109 109 111 113 116 121 122 125 128 128 132 136 140 142 141 143 142 141 139
Wind_Speed_850mb
31 42 42 47 49 44 36 38 26 41 36 44 40 23 37 58 67 71 70 71 75 74 86 86 80 74 68 64 59 60 52 45 57 76 81 89 80 75 78 78 78 89 85 92
28 36 37 43 38 30 24 11 21 31 52 31 43 47 58 68 70 74 80 80 79 81 82 73 66 70 69 67 59 57 61 49 63 70 84 83 85 73 80 89 87 83 90 89
14 9 28 13 5 2 8 16 25 36 47 23 40 48 58 73 76 79 83 86 85 80 73 71 64 58 65 59 57 61 59 60 65 68 86 86 88 83 94 90 90 83 90 89
10 14 7 3 8 3 22 32 34 30 24 40 57 72 86 92 81 80 75 71 68 71 78 67 62 70 66 57 60 63 66 66 67 65 77 85 93 97 99 103 101 98 97 88
6 5 19 2 3 11 21 56 4 18 44 52 69 78 70 32 43 55 68 77 79 80 79 75 69 64 57 51 56 65 72 68 53 64 81 86 99 115 100 99 105 116 114 101
5 8 9 4 5 39 15 14 10 42 40 46 61 24 36 90 106 92 64 61 62 58 58 62 58 58 68 73 71 88 79 64 65 81 82 95 108 112 117 103 112 110 102 89
12 10 14 5 24 23 7 12 53 56 63 64 31 33 84 108 92 58 48 44 41 41 45 51 62 53 49 77 88 65 61 61 87 93 109 114 115 113 127 121 125 111 101 91
5 5 12 20 9 5 14 39 58 67 71 69 77 87 83 77 64 54 48 42 40 41 29 17 8 23 31 41 42 54 89 103 114 119 112 109 111 110 143 139 126 113 101 98
11 10 8 35 31 42 42 48 60 64 79 76 76 76 72 63 55 50 41 33 30 17 21 30 29 37 82 76 103 125 128 127 124 118 114 108 104 132 136 139 131 120 117 106
2 9 16 28 38 42 36 45 61 67 67 63 65 64 60 55 50 47 36 32 27 31 43 45 51 67 79 84 113 128 134 129 126 125 119 121 130 127 136 133 126 120 114 108
10 19 28 19 22 42 44 47 55 59 54 54 55 57 46 47 45 37 30 34 44 52 64 69 68 75 82 89 121 131 130 134 129 137 137 135 123 117 120 112 115 116 108 104
9 9 11 25 36 42 44 47 48 52 54 55 51 49 43 43 45 38 35 38 47 56 73 78 81 84 87 96 120 140 138 135 142 138 127 123 123 114 106 107 97 99 97 92
12 14 29 43 36 39 40 38 41 36 40 46 44 41 37 44 43 39 36 46 54 59 58 68 86 91 94 108 130 138 147 134 132 132 122 118 116 116 111 94 91 87 84 82
26 23 26 16 16 33 29 31 29 27 29 33 35 31 34 35 43 43 44 47 59 62 65 61 74 85 91 99 111 114 119 120 123 124 120 116 115 115 114 110 103 90 75 74
15 18 34 25 21 29 23 28 31 33 34 33 34 33 36 37 41 43 47 47 59 65 68 68 68 73 79 86 99 111 117 119 119 118 119 121 120 115 109 106 104 97 84 69
5 10 13 14 13 19 19 24 28 32 30 29 32 36 32 35 41 44 42 58 67 71 69 70 65 66 81 89 100 108 111 112 114 115 112 109 108 109 107 103 97 87 80 73
4 11 18 15 5 10 13 19 21 23 26 30 27 34 31 40 45 57 54 49 67 75 76 74 77 64 78 92 98 105 105 106 106 108 108 106 105 103 100 95 89 80 72 63
7 10 10 13 8 5 12 18 18 22 26 27 30 36 46 51 55 58 64 67 67 71 73 78 81 83 84 88 96 99 99 97 98 100 99 98 97 93 90 86 80 76 68 59
9 15 11 17 13 10 14 19 23 22 23 27 31 44 44 48 60 68 72 80 82 87 77 74 79 76 78 86 91 85 82 86 90 91 91 90 88 84 81 77 72 67 64 61
18 15 16 19 14 18 18 22 26 27 28 37 36 43 50 56 65 72 74 72 67 67 60 61 62 65 62 58 66 76 84 85 91 91 87 84 81 77 72 68 66 63 61 57
20 15 20 26 21 21 21 26 31 32 35 43 51 60 63 61 63 58 63 62 54 50 52 58 57 58 58 62 70 77 83 87 86 84 80 77 73 71 68 64 60 57 55 52
19 15 21 28 27 30 25 30 40 35 37 43 50 55 66 66 62 54 55 59 55 54 58 55 55 58 60 61 65 71 73 74 75 73 72 68 65 65 61 57 55 53 50 47
17 16 23 31 34 33 29 36 33 36 40 45 52 57 65 61 55 61 63 54 57 62 67 70 68 64 60 63 63 63 61 61 62 63 62 59 58 57 54 52 52 50 47 42
18 20 24 26 28 33 37 31 28 32 46 54 62 66 70 57 55 53 58 57 51 47 55 59 58 54 49 51 51 53 52 56 60 58 55 51 48 47 47 47 48 46 41 36
22 25 24 24 25 31 32 35 41 51 59 62 55 51 44 39 49 51 52 55 58 57 58 56 54 47 47 46 47 49 53 56 53 51 47 44 43 44 45 43 43 42 37 32
24 27 25 22 21 26 31 31 41 45 48 54 45 37 35 38 41 47 52 50 50 46 45 44 41 42 45 47 50 51 50 48 44 42 41 39 39 41 41 40 37 35 31 27
29 27 29 29 26 30 34 37 42 46 40 37 34 33 35 32 34 38 44 45 43 43 40 38 39 42 41 40 41 39 37 36 35 34 34 34 34 36 36 34 31 31 27 27
Wind_Direction_850mb
250 261 271 273 277 281 273 271 274 298 297 297 303 321 306 303 299 294 287 285 280 279 283 287 286 285 284 279 268 260 263 263 232 224 227 221 211 206 209 201 209 199 201 194
271 264 265 273 275 277 280 290 281 287 288 305 317 311 305 298 290 287 287 284 280 279 279 282 283 282 280 290 271 255 258 253 230 222 224 213 201 193 195 190 195 197 192 191
277 334 307 278 219 144 290 285 296 291 300 331 314 311 302 298 293 286 283 281 280 282 286 285 275 271 277 275 263 258 257 244 234 220 215 201 188 180 181 185 187 191 187 181
291 338 318 194 97 285 283 283 283 290 320 317 308 297 294 291 283 279 279 281 288 286 284 281 277 275 277 264 253 243 243 252 233 214 197 191 182 174 178 179 180 175 164 157
291 250 280 170 40 314 320 310 75 339 321 313 313 313 303 305 303 295 295 293 290 287 281 284 282 278 265 261 250 238 235 244 228 197 191 183 178 170 178 178 173 160 150 146
294 275 275 147 296 324 310 280 15 334 317 314 318 311 306 319 317 317 310 306 303 298 292 289 286 285 277 257 259 237 227 241 200 192 181 184 175 174 169 167 153 148 142 142
259 261 277 38 344 326 36 291 318 319 311 309 307 285 292 309 323 337 337 328 316 308 301 295 286 277 268 246 228 222 222 203 186 177 172 170 167 169 159 150 145 143 141 141
251 267 289 6 5 353 279 306 305 307 308 307 307 309 315 321 332 347 344 334 325 318 329 340 81 135 122 132 181 175 161 159 157 157 160 161 161 156 149 147 140 140 136 131
209 238 251 333 303 298 303 304 308 308 315 313 310 316 326 339 353 359 3 350 339 357 65 82 113 89 119 115 134 145 147 147 147 147 150 157 159 149 141 137 135 135 134 137
359 251 251 296 300 302 300 318 318 318 317 323 320 333 347 1 2 10 7 23 41 75 81 88 95 104 111 114 127 129 135 137 139 138 133 139 143 140 133 139 138 136 137 138
251 279 291 282 288 323 327 330 324 327 335 337 338 350 7 9 15 24 34 51 65 73 87 88 95 105 112 112 121 121 120 126 132 138 135 130 135 138 135 130 138 143 142 139
256 254 279 285 316 322 331 330 329 331 339 342 354 2 6 23 35 41 55 69 76 85 99 94 96 105 110 114 115 121 118 121 126 132 139 139 136 123 126 130 136 139 136 131
241 291 299 302 313 333 330 335 332 334 342 341 354 14 11 36 46 54 63 74 81 90 100 100 100 103 109 114 121 121 122 126 131 138 134 128 122 121 126 131 126 120 123 125
254 290 290 286 327 338 341 341 349 359 356 357 14 17 39 46 56 67 66 75 87 96 97 102 97 94 105 115 121 121 124 127 125 126 125 123 123 125 127 125 122 121 121 122
276 282 287 294 340 347 352 353 7 8 7 8 29 30 40 52 57 76 85 88 90 91 93 97 99 105 114 120 123 122 123 123 124 125 127 129 130 130 128 127 125 125 125 122
254 322 342 277 331 359 4 12 14 10 8 18 37 44 38 48 63 65 77 89 91 91 98 105 106 120 123 128 125 124 124 125 127 129 130 129 130 129 129 128 127 128 129 128
308 349 342 318 10 14 14 22 26 17 26 37 32 63 58 67 72 80 86 84 90 99 108 110 113 122 121 123 125 126 129 131 131 130 130 131 132 132 131 130 130 128 124 124
357 349 339 347 44 38 26 38 46 30 51 50 58 66 74 77 80 83 90 97 97 96 100 107 113 118 122 128 129 130 130 131 131 129 131 132 131 130 129 126 125 123 123 126
70 70 42 54 62 59 54 58 62 59 63 71 75 81 86 89 95 95 100 97 92 95 99 104 109 113 121 126 126 127 131 132 131 130 129 128 126 126 126 126 127 127 131 133
125 80 63 73 72 81 69 75 83 79 86 91 95 96 96 97 102 100 97 91 102 105 112 110 114 116 120 129 130 130 132 132 131 129 129 128 129 130 130 129 130 131 131 128
122 85 74 70 82 85 79 89 92 88 104 104 104 99 99 106 104 95 90 88 107 117 113 109 110 109 113 121 125 129 131 131 130 130 130 129 130 130 131 130 128 127 125 124
141 106 82 79 88 90 83 99 97 90 104 107 114 113 112 104 93 81 88 95 107 106 109 115 117 114 115 120 123 127 128 128 129 129 128 128 128 128 127 128 129 128 128 125
156 139 107 91 87 90 91 102 101 104 110 116 120 118 113 105 104 102 97 95 100 102 106 107 107 109 115 119 123 125 128 128 127 128 128 127 125 125 127 128 129 129 129 129
149 153 131 113 95 90 92 104 110 106 123 121 117 110 114 106 102 100 102 107 108 109 106 105 105 107 114 120 126 128 127 130 130 129 124 120 119 123 127 131 133 132 129 127
142 147 141 129 114 105 100 102 112 122 122 117 114 107 108 112 106 105 106 107 105 103 103 101 101 108 107 115 126 126 126 128 127 125 124 124 126 130 133 135 133 134 129 124
136 131 126 126 113 111 106 105 118 134 128 125 118 108 98 99 106 103 100 101 99 100 100 105 108 103 102 107 116 116 121 123 125 125 126 128 132 134 134 137 136 134 129 129
132 126 125 127 124 118 118 120 122 127 125 120 116 115 114 105 102 105 103 103 105 103 104 104 108 109 109 111 113 116 121 122 125 128 128 132 136 140 142 141 143 142 141 139